Regional Weather Roundup
Issued by NWS Wakefield, VA

Home | Current Version | Previous Version | Graphics & Text | Print | Product List | Glossary On
Versions: 1 2 3 4 5 6 7 8 9 10 11 12 13 14 15 16 17 18 19 20 21 22 23 24 25 26 27 28 29 30 31 32 33 34 35 36 37 38 39 40 41 42 43 44 45 46 47 48 49 50
000
ASUS41 KAKQ 280915
RWRAKQ

REGIONAL WEATHER ROUNDUP
NATIONAL WEATHER SERVICE WAKEFIELD VA
500 AM EDT THU MAY 28 2015

Note: "fair" indicates few or no clouds below 12,000 feet with no
significant weather and/or obstructions to visibility. * = Denotes
station may not report precipitation (e.g., rain,snow,etc.),
thunder or fog.

VAZ042-051-052>054-056-281000-
NORTHERN VIRGINIA

CITY           SKY/WX    TMP DP  RH WIND       PRES   REMARKS
WASH NATIONAL  MOCLDY    74  67  78 S8        30.13R
DULLES         CLOUDY    69  68  95 S7        30.12S
FORT BELVOIR   PTCLDY    65  64  96 CALM      30.13R
QUANTICO       PTCLDY    73  66  78 SW8       30.14R
FREDERICKSBRG* PTCLDY    72  67  85 SE5       30.13R
STAFFORD*      PTCLDY    68  64  88 S3        30.17R
WARRENTON      PTCLDY    68  67  94 CALM      30.12S
CULPEPER*      PTCLDY    63  63  99 CALM      30.13S
MANASSAS*      PTCLDY    64  64 100 CALM      30.13R
LEESBURG*      PTCLDY    68  68 100 S5        30.14R
WINCHESTER     CLEAR     70  61  73 W3        30.15R
FRONT ROYAL*   FAIR      64  63  94 S5        30.14R
LURAY*         FAIR      63  63 100 E3        30.16S
$$

VAZ048-049-060>072-079>083-281000-
CENTRAL AND SOUTH CENTRAL VIRGINIA

CITY           SKY/WX    TMP DP  RH WIND       PRES   REMARKS
RICHMOND       MOCLDY    71  67  87 S6        30.16S
CHESTERFIELD*  NOT AVBL
PETERSBURG*    MOCLDY    71  71 100 S3        30.18R
HANOVER        CLEAR     71  67  87 S6        30.17R
TAPPAHANNOCK*  CLEAR     71  65  83 S5        30.17R
QUINTON*       PTSUNNY   71  69  93 S5        30.16S
CHARLOTTSVILLE CLEAR     65  63  93 SW3       30.14S
GORDONSVILLE*  FAIR      64  63  97 CALM      30.14R
ORANGE*        PTCLDY    66  64  94 CALM      30.15S
LOUISA*        CLEAR     70  64  83 SW5       30.14R
BUMPASS*       FAIR      67  65  95 CALM      30.15R
FARMVILLE*     CLEAR     67  67 100 SW3       30.15R
CREWE*         FAIR      69  67  94 SW3       30.17R
FORT PICKETT*  FAIR      67  67  97 SW5       30.17S
CHASE CITY*    FAIR      69  69 100 CALM      30.17S
CLARKSVILLE*   FAIR      68  66  94 SW5       30.17S
SOUTH HILL*    PTCLDY    67  66  97 CALM      30.24R
LAWRENCEVILLE* FAIR      70  68  94 CALM      30.18R
EMPORIA*       MOCLDY    68  68 100 CALM      30.20R
$$

VAZ088>098-281000-
SOUTHEAST VIRGINIA

CITY           SKY/WX    TMP DP  RH WIND       PRES   REMARKS
NORFOLK        MOCLDY    70  65  84 S9        30.19S
VIRGINIA BEACH MOCLDY    71  65  81 S8        30.19S
NORFOLK NAVAL  MOCLDY    75  66  73 S6        30.19F
WEST POINT*    MOCLDY    74  69  86 S5        30.18F
SALUDA*        FAIR      71  68  91 S7        30.16S
NEWPORT NEWS   MOCLDY    76  67  73 SW10      30.18S
LANGLEY AFB    MOCLDY    71  67  87 S12       30.16F
FORT EUSTIS    MOCLDY    72  72 100 VRB5      30.16S
WILLIAMSBURG*  CLOUDY    73  70  88 SW5       30.19R
HR EXEC AP*    FAIR      68  64  88 S6        30.21S
FRANKLIN*      CLOUDY    70  67  89 SE6       30.19S
WAKEFIELD      CLOUDY    71  68  90 S3        30.18S
$$

VAZ020-022-025-037-045-281000-
WEST CENTRAL AND SOUTHWEST VIRGINIA

CITY           SKY/WX    TMP DP  RH WIND       PRES   REMARKS
STAUNTON*      PTCLDY    62  60  93 CALM      30.20R
WAYNESBORO*    FAIR      61  60  98 CALM      30.19S
HOT SPRINGS VA PTCLDY    62  60  94 W6        30.28R
LYNCHBURG      CLEAR     64  64 100 CALM      30.19R
DANVILLE       PTCLDY    67  64  90 SW6       30.18S
SOUTH BOSTON*    N/A     64  63  96 CALM      30.18R
MARTINSVILLE     N/A     59  59 100 CALM      30.22S FOG
ROANOKE        PTCLDY    66  62  87 CALM      30.20S
BLACKSBURG     PTCLDY    60  59  96 CALM      30.26S
DUBLIN*        PTCLDY    60  60 100 CALM      30.25R FOG
MARION*        CLOUDY    60  58  94 CALM      30.28S
HILLSVILLE*    MOCLDY    63  61  95 S3        30.26R
RICHLANDS*     FAIR      64  58  81 CALM      30.26R
WISE*          CLOUDY    64  55  72 CALM      30.27S
ABINGDON*      CLOUDY    65  62  87 CALM      30.24R
$$

MDZ021>025-VAZ099-100-281000-
SOUTHERN MARYLAND AND THE DELMARVA PENINSULA

CITY           SKY/WX    TMP DP  RH WIND       PRES   REMARKS
PATUXENT RIVER PTCLDY    72  67  84 SW12      30.14S
BAY BRIDGE APT   N/A    N/A N/A N/A S7        30.13S
LEONARDTOWN    PTCLDY    70  64  83 S7        30.17R
DOVER          CLOUDY    72  72 100 S8        30.11R
GEORGETOWN     PTCLDY    69  66  90 SW6       30.16S
EASTON         CLEAR     73  73 100 SW6       30.18R
CAMBRIDGE      PTCLDY    73  68  83 S6        30.15R
SALISBURY      PTCLDY    67  66  97 CALM      30.17R
OCEAN CITY     PTCLDY    65  63  93 S7        30.18R
WALLOPS ISLAND PTCLDY    65  65 100 S10       30.19R
ACCOMACK*      PTCLDY    70  68  94 S7        30.18R
$$

NCZ012>017-030>032-281000-
NORTH CENTRAL AND EASTERN NORTH CAROLINA

CITY           SKY/WX    TMP DP  RH WIND       PRES   REMARKS
ROANOKE RAPIDS PTSUNNY   68  68 100 S5        30.18S
RALEIGH        MOCLDY    69  67  93 SW5       30.19S
ELIZABETH CITY CLOUDY    71  65  81 S7        30.21S
AHOSKIE*       PTCLDY    67  65  95 S3        30.19S
EDENTON*       PTCLDY    69  65  86 S8        30.21F
CURRITUCK*     CLOUDY    71  63  75 S3        30.21F
KILL DEVIL HLS CLOUDY    71  64  77 S3        30.22S
MANTEO         CLOUDY    72  64  78 SW10      30.24R
CAPE HATTERAS  CLEAR     71  60  68 S8        30.23S
TARBORO*       FAIR      68  66  93 CALM      30.20S
GOLDSBORO      PTCLDY    68  66  93 CALM      30.18S
WASHINGTON     PTCLDY    68  65  89 S3        30.22R
GREENVILLE     PTCLDY    70  66  88 S6        30.21S
NEW BERN       MOCLDY    67  63  87 S3        30.23S
WILMINGTON     CLEAR     65  63  93 CALM      30.21R
$$

VAZ048-281000-
ELSEWHERE

CITY           SKY/WX    TMP DP  RH WIND       PRES   REMARKS
HARRISBURG PA  MOCLDY    68  65  90 CALM      30.11S
BALTIMORE      MOCLDY    66  65  96 CALM      30.12R
ANNAPOLIS      CLEAR     71  68  90 SE6       30.12R
ANDREWS AFB    PTCLDY    70  69  98 S7        30.13R
PHILADELPHIA   PTCLDY    70  67  90 S3        30.14R
HENDERSON NC   CLOUDY    68  66  92 SW6       30.19S FOG
GREENSBORO     MOCLDY    68  67  96 SW6       30.19S
ROCKY MOUNT    CLEAR     68  67  96 S3        30.19F FOG
$$

VAZ100-281000-
MARINE

STATION/POSITION TIME  TEMP    WIND        PRES    WAVE   SWELL
                       AIR SEA DIR/SP/G            HT/PER HT/PER
                 (UTC) (F)     (DEG/KT/KT) (MB)    (FT/S) (FT/S)
BRANDYWINE LGT   0800   69 66  220/ 14/ 15 1020.7F
CAPE MAY NJ      0800   67 70  190/  6/ 10 1020.4F
LEWES DE         0800   71 60  230/  9/ 13 1020.6F
15NM E FENWICK I 0850   64 62              1021.3S   3/ 5
OCEAN-CITY-INLET 0800   62 58  200/ 11/ 14 1021.3S
WACHAPREAGUE VA  0800   70 74  230/  6/  9 1021.9F
THOMAS POINT MD  0900   70 69  170/ 12/ 13 1020.8R
GOOSES REEF MD   0900   71 69  200/  8/  8 1021.6R   1/ 2
COVE POINT MD    0800   72     240/ 11/ 15 1021.2F
SOLOMONS ISLAND  0800      70                N/A
BISHOPS HEAD MD  0800   72 75  200/ 12/ 14 1020.6F
PINEY POINT MD   0800          230/ 12/ 13   N/A
CAMBRIDGE MD     0800   72 73  210/  4/  9 1020.5F
LEWISETTA VA     0800   73 75              1020.7F
RAPPAHANNOCK LGT 0800          190/ 12/ 13 1022.2F
STINGRAY PT      0900   73 72  210/ 10/ 12 1021.2R   1/ 2
YORK RVR RNG VA  0800   73     230/ 12/ 14 1020.9F
YORKTOWN VA      0800   73 72  220/ 10/ 15 1021.1F
JAMESTOWN VA     0900   71 77  200/  6/  8 1020.7S
DOMINION TERM VA 0800   72     210/ 11/ 13 1022.0F
KIPTOPEKE VA     0800      76  200/ 11/ 12   N/A
CHES BAY BRIDGE  0800   72 72  190/ 12/ 14 1021.6F
CAPE HENRY VA    0800   70     190/  8/ 12 1021.0F
CHESAPEAKE LGHT  0800   65     200/ 17/ 17 1023.1R
WILLOUBY STN VA  0800   72     210/ 13/ 16 1022.7F
CAPE HENRY BUOY  0828      62                N/A     3/ 7
1ST LANDING BUOY 0900      71              1021.8S
CAPE CHARLES BUO 0826      68                N/A     2/ 7   2/14
OFFSHORE WE BUOY 0811      65                N/A     3/ 7   2/ 7
64NM E OF VA BCH 0850   65 64  170/  6/  8 1023.2R   3/ 8   3/ 8
DUCK PIER NC     0800   72 54  200/  8/ 12 1022.3R
44100 DUCK FRF   0824      65                N/A     2/ 7
44056 DUCK FRF   0811      58                N/A     2/ 7
OREGON INLET NC  0800   72 76  180/  8/ 12 1023.5F
HATTERAS NC      0800   72 75  180/  4/  7 1023.1F
DIAMOND SHLS NC  0850   73 77  190/  8/ 10 1023.8F   3/ 8   3/ 8
CAPE LOOKOUT NC  0900   73     160/  5/  7 1023.3R
$$


USA.gov is the U.S. government's official web portal to all federal, state and local government web resources and services.